Tracking 28790 objects as of 19-Apr-2024
HD Live streaming from Space Station
objects crossing your sky now

SL-14 DEB

Track SL-14 DEB now!
10-day predictions


NORAD ID: 39986
Int'l Code: 1987-068DN
Perigee: 916.9 km
Apogee: 974.6 km
Inclination: 82.5 °
Period: 103.8 minutes
Semi major axis: 7316 km
RCS: 0.0017 m2 (small)
Launch date: August 18, 1987
Source: Commonwealth of Independent States (former USSR) (CIS)
Launch site: PLESETSK MISSILE AND SPACE COMPLEX (PKMTR)

Note: This is SATELLITE DEBRIS
Your satellite tracking list
Your tracking list is empty




NASA's NSSDC Master Catalog

Two Line Element Set (TLE):
1 39986U 87068DN  24107.45915220  .00001476  00000-0  12383-2 0  9993
2 39986  82.5046 185.4358 0039425  14.6225   1.1971 13.87151516812940
Source of the keplerian elements: AFSPC